| time (UTC) | temp F | wind direction | speed knots | gust knots | rain 1hr in | rain 24hr in | rain mn in | humidity % | barometer mb |
| 20260502183302 | 54 | 342 | 0.9 | 1.7 | 0.00 | 0.00 | 0.00 | 47 | |
| 20260502182758 | 55 | 334 | 1.7 | 2.6 | 0.00 | 0.00 | 0.00 | 48 | |
| 20260502182253 | 54 | 57 | 1.7 | 1.7 | 0.00 | 0.00 | 0.00 | 45 | |
| 20260502181749 | 54 | 72 | 1.7 | 1.7 | 0.00 | 0.00 | 0.00 | 45 | |
| 20260502181243 | 53 | 310 | 1.7 | 1.7 | 0.00 | 0.00 | 0.00 | 47 | |
| 20260502180740 | 53 | 286 | 2.6 | 6.1 | 0.00 | 0.00 | 0.00 | 47 | |
| 20260502180237 | 53 | 31 | 0.0 | 2.6 | 0.00 | 0.00 | 0.00 | 47 | |
| 20260502170150 | 56 | 231 | 3.5 | 4.3 | 0.00 | 0.00 | 0.00 | 45 | |
| 20260502164137 | 55 | 198 | 2.6 | 4.3 | 0.00 | 0.00 | 0.00 | 48 | |
| 20260502163632 | 54 | 339 | 0.9 | 2.6 | 0.00 | 0.00 | 0.00 | 50 | |
| 20260502163129 | 53 | 4 | 0.0 | 2.6 | 0.00 | 0.00 | 0.00 | 50 | |
| 20260502162626 | 53 | 351 | 0.9 | 0.9 | 0.00 | 0.00 | 0.00 | 52 | |
| 20260502162123 | 53 | 280 | 0.9 | 1.7 | 0.00 | 0.00 | 0.00 | 54 | |
| 20260502161620 | 53 | 311 | 0.9 | 1.7 | 0.00 | 0.00 | 0.00 | 53 | |
| 20260502161118 | 53 | 355 | 0.9 | 1.7 | 0.00 | 0.00 | 0.00 | 51 | |
| 20260502160615 | 53 | 69 | 0.0 | 0.9 | 0.00 | 0.00 | 0.00 | 53 | |
| 20260502160114 | 53 | 259 | 2.6 | 5.2 | 0.00 | 0.00 | 0.00 | 51 | |
| 20260502152028 | 52 | 313 | 2.6 | 4.3 | 0.00 | 0.00 | 0.00 | 55 | |
| 20260502151525 | 53 | 348 | 2.6 | 2.6 | 0.00 | 0.00 | 0.00 | 55 | |
| 20260502151022 | 54 | 23 | 0.9 | 2.6 | 0.00 | 0.00 | 0.00 | 56 | |
| 20260502150520 | 54 | 356 | 0.9 | 1.7 | 0.00 | 0.00 | 0.00 | 56 | |
| 20260502130405 | 46 | 29 | 0.9 | 0.9 | 0.00 | 0.00 | 0.00 | 87 | |
| 20260502123347 | 44 | 35 | 0.0 | 0.0 | 0.00 | 0.00 | 0.00 | 88 | |
| 20260502122845 | 43 | 36 | 0.0 | 0.0 | 0.00 | 0.00 | 0.00 | 91 | |
| 20260502122340 | 42 | 26 | 0.0 | 0.0 | 0.00 | 0.00 | 0.00 | 94 | |
| 20260502121839 | 41 | 24 | 0.0 | 0.0 | 0.00 | 0.00 | 0.00 | 98 | |
| 20260502121336 | 39 | 21 | 0.0 | 0.0 | 0.00 | 0.00 | 0.00 | 99 | |
| 20260502120833 | 38 | 1 | 0.0 | 0.0 | 0.00 | 0.00 | 0.00 | 99 | |
| 20260502120329 | 37 | 1 | 0.0 | 0.0 | 0.00 | 0.00 | 0.00 | 99 | |
| 20260502115827 | 37 | 1 | 0.0 | 0.0 | 0.00 | 0.00 | 0.00 | 99 | |
| 20260502115324 | 36 | 1 | 0.0 | 0.0 | 0.00 | 0.00 | 0.00 | 99 | |
| 20260502114820 | 36 | 0 | 0.0 | 0.0 | 0.00 | 0.00 | 0.00 | 99 | |
| 20260502114317 | 35 | 358 | 0.0 | 0.0 | 0.00 | 0.00 | 0.00 | 99 | |
| 20260502113814 | 35 | 357 | 0.0 | 0.0 | 0.00 | 0.00 | 0.00 | 99 | |
| 20260502113312 | 35 | 357 | 0.0 | 0.0 | 0.00 | 0.00 | 0.00 | 99 | |
| 20260502112810 | 34 | 357 | 0.0 | 0.0 | 0.00 | 0.00 | 0.00 | 99 | |
| 20260502112307 | 34 | 358 | 0.0 | 0.0 | 0.00 | 0.00 | 0.00 | 99 | |
| 20260502111804 | 34 | 358 | 0.0 | 0.0 | 0.00 | 0.00 | 0.00 | 99 | |
| 20260502111301 | 34 | 358 | 0.0 | 0.0 | 0.00 | 0.00 | 0.00 | 99 | |
| 20260502110759 | 34 | 357 | 0.0 | 0.0 | 0.00 | 0.00 | 0.00 | 99 | |
| 20260502110256 | 34 | 357 | 0.0 | 0.0 | 0.00 | 0.00 | 0.00 | 99 | |
| 20260502105754 | 34 | 357 | 0.0 | 0.0 | 0.00 | 0.00 | 0.00 | 99 | |
| 20260502105250 | 34 | 357 | 0.0 | 0.0 | 0.00 | 0.00 | 0.00 | 99 | |
| 20260502104748 | 34 | 357 | 0.0 | 0.0 | 0.00 | 0.00 | 0.00 | 99 | |
| 20260502104246 | 34 | 357 | 0.0 | 0.0 | 0.00 | 0.00 | 0.00 | 99 | |
| 20260502103743 | 34 | 358 | 0.0 | 0.0 | 0.00 | 0.00 | 0.00 | 99 | |
| 20260502103240 | 34 | 4 | 0.0 | 0.0 | 0.00 | 0.00 | 0.00 | 99 | |
| 20260502102738 | 34 | 3 | 0.0 | 0.0 | 0.00 | 0.00 | 0.00 | 99 | |
| 20260502102233 | 34 | 359 | 0.0 | 0.0 | 0.00 | 0.00 | 0.00 | 99 | |
| 20260502101732 | 34 | 359 | 0.0 | 0.0 | 0.00 | 0.00 | 0.00 | 99 | |
| 20260502101230 | 34 | 359 | 0.0 | 0.0 | 0.00 | 0.00 | 0.00 | 99 | |
| 20260502100727 | 34 | 359 | 0.0 | 0.0 | 0.00 | 0.00 | 0.00 | 99 | |
| 20260502100226 | 34 | 359 | 0.0 | 0.0 | 0.00 | 0.00 | 0.00 | 99 | |
| 20260502091154 | 35 | 1 | 0.0 | 0.0 | 0.00 | 0.00 | 0.00 | 99 | |
| 20260502090651 | 35 | 356 | 0.0 | 0.0 | 0.00 | 0.00 | 0.00 | 99 | |
| 20260502090148 | 35 | 350 | 0.0 | 0.0 | 0.00 | 0.00 | 0.00 | 99 | |
| 20260502080110 | 36 | 335 | 0.0 | 0.0 | 0.00 | 0.00 | 0.00 | 99 | |
| 20260502071044 | 37 | 358 | 0.0 | 0.0 | 0.00 | 0.00 | 0.00 | 99 | |
| 20260502070542 | 37 | 358 | 0.0 | 0.0 | 0.00 | 0.00 | 0.00 | 99 | |
| 20260502070039 | 37 | 350 | 0.0 | 0.0 | 0.00 | 0.00 | 0.00 | 99 | |
| 20260502065538 | 37 | 2 | 0.0 | 0.0 | 0.00 | 0.00 | 0.00 | 98 | |
| 20260502065035 | 38 | 2 | 0.0 | 0.0 | 0.00 | 0.00 | 0.00 | 98 | |
| 20260502064533 | 38 | 356 | 0.0 | 0.0 | 0.00 | 0.00 | 0.00 | 98 | |
| 20260502064030 | 38 | 347 | 0.0 | 0.0 | 0.00 | 0.00 | 0.00 | 98 | |
| 20260502063528 | 38 | 338 | 0.0 | 0.0 | 0.00 | 0.00 | 0.00 | 98 | |
| 20260502063025 | 38 | 1 | 0.0 | 0.0 | 0.00 | 0.00 | 0.00 | 98 | |
| 20260502062522 | 38 | 1 | 0.0 | 0.0 | 0.00 | 0.00 | 0.00 | 97 | |
| 20260502062020 | 39 | 4 | 0.0 | 0.0 | 0.00 | 0.00 | 0.00 | 97 | |
| 20260502061517 | 39 | 7 | 0.0 | 0.0 | 0.00 | 0.00 | 0.00 | 97 | |
| 20260502061015 | 39 | 6 | 0.0 | 0.0 | 0.00 | 0.00 | 0.00 | 97 | |
| 20260502060510 | 39 | 7 | 0.0 | 0.0 | 0.00 | 0.00 | 0.00 | 97 | |
| 20260502060007 | 39 | 351 | 0.0 | 0.0 | 0.00 | 0.00 | 0.00 | 96 | |
| 20260502055504 | 39 | 350 | 0.0 | 0.0 | 0.00 | 0.00 | 0.00 | 96 | |
| 20260502055003 | 39 | 357 | 0.0 | 0.0 | 0.00 | 0.00 | 0.00 | 95 | |
| 20260502054502 | 40 | 357 | 0.0 | 0.0 | 0.00 | 0.00 | 0.00 | 95 | |
| 20260502053958 | 40 | 357 | 0.0 | 0.0 | 0.00 | 0.00 | 0.00 | 95 | |
| 20260502053455 | 41 | 357 | 0.0 | 0.0 | 0.00 | 0.00 | 0.00 | 94 | |
| 20260502052953 | 41 | 0 | 0.0 | 0.0 | 0.00 | 0.00 | 0.00 | 94 | |
| 20260502052451 | 41 | 355 | 0.0 | 0.0 | 0.00 | 0.00 | 0.00 | 92 | |
| 20260502051949 | 41 | 357 | 0.0 | 0.0 | 0.00 | 0.00 | 0.00 | 92 | |
| 20260502051447 | 42 | 350 | 0.0 | 0.0 | 0.00 | 0.00 | 0.00 | 91 | |
| 20260502050944 | 42 | 355 | 0.0 | 0.0 | 0.00 | 0.00 | 0.00 | 91 | |
| 20260502050440 | 42 | 357 | 0.0 | 0.0 | 0.00 | 0.00 | 0.00 | 90 | |
| 20260502045937 | 43 | 344 | 0.0 | 0.0 | 0.00 | 0.00 | 0.00 | 89 | |
| 20260502045434 | 43 | 345 | 0.0 | 0.0 | 0.00 | 0.00 | 0.00 | 89 | |
| 20260502044931 | 43 | 344 | 0.0 | 0.0 | 0.00 | 0.00 | 0.00 | 88 | |
| 20260502044427 | 44 | 348 | 0.0 | 0.0 | 0.00 | 0.00 | 0.00 | 87 | |
| 20260502043924 | 44 | 338 | 0.0 | 0.0 | 0.00 | 0.00 | 0.00 | 87 | |
| 20260502043422 | 44 | 356 | 0.0 | 0.0 | 0.00 | 0.00 | 0.00 | 87 | |
| 20260502042921 | 45 | 345 | 0.0 | 0.0 | 0.00 | 0.00 | 0.00 | 86 | |
| 20260502042419 | 45 | 338 | 0.0 | 0.0 | 0.00 | 0.00 | 0.00 | 84 | |
| 20260502041915 | 45 | 355 | 0.0 | 0.0 | 0.00 | 0.00 | 0.00 | 84 | |
| 20260502041414 | 45 | 356 | 0.0 | 0.0 | 0.00 | 0.00 | 0.00 | 83 | |
| 20260502040910 | 46 | 355 | 0.0 | 0.0 | 0.00 | 0.00 | 0.00 | 81 | |
| 20260502040407 | 46 | 349 | 0.0 | 0.0 | 0.00 | 0.00 | 0.00 | 82 | |
| 20260502035903 | 46 | 349 | 0.0 | 0.0 | 0.00 | 0.00 | 0.00 | 81 | |
| 20260502035400 | 46 | 348 | 0.0 | 0.0 | 0.00 | 0.00 | 0.00 | 80 | |
| 20260502034857 | 47 | 348 | 0.0 | 0.0 | 0.00 | 0.00 | 0.00 | 81 | |
| 20260502034356 | 47 | 346 | 0.0 | 0.0 | 0.00 | 0.00 | 0.00 | 78 | |
| 20260502033854 | 47 | 355 | 0.0 | 0.0 | 0.00 | 0.00 | 0.00 | 78 | |
| 20260502033351 | 48 | 348 | 0.0 | 0.0 | 0.00 | 0.00 | 0.00 | 78 | |
| 20260502032847 | 48 | 340 | 0.0 | 0.0 | 0.00 | 0.00 | 0.00 | 75 | |
| 20260502032343 | 48 | 336 | 0.0 | 0.0 | 0.00 | 0.00 | 0.00 | 74 | |
| 20260502031841 | 48 | 346 | 0.0 | 0.0 | 0.00 | 0.00 | 0.00 | 73 | |
| 20260502031339 | 48 | 168 | 0.9 | 1.7 | 0.00 | 0.00 | 0.00 | 73 | |
| 20260502030837 | 48 | 349 | 0.0 | 0.0 | 0.00 | 0.00 | 0.00 | 73 | |
| 20260502030335 | 49 | 349 | 0.0 | 0.9 | 0.00 | 0.00 | 0.00 | 74 | |
| 20260502025832 | 49 | 342 | 0.0 | 0.9 | 0.00 | 0.00 | 0.00 | 71 | |
| 20260502025330 | 49 | 300 | 0.0 | 0.0 | 0.00 | 0.00 | 0.00 | 72 | |
| 20260502024828 | 49 | 61 | 0.0 | 0.9 | 0.00 | 0.00 | 0.00 | 70 | |
| 20260502024325 | 49 | 311 | 0.0 | 0.9 | 0.00 | 0.00 | 0.00 | 70 | |
| 20260502023823 | 50 | 356 | 0.0 | 0.0 | 0.00 | 0.00 | 0.00 | 71 | |
| 20260502023321 | 50 | 5 | 0.0 | 0.9 | 0.00 | 0.00 | 0.00 | 69 | |
| 20260502022818 | 50 | 47 | 0.0 | 0.9 | 0.00 | 0.00 | 0.00 | 70 | |
| 20260502022314 | 50 | 26 | 0.0 | 4.3 | 0.00 | 0.00 | 0.00 | 69 | |
| 20260502021811 | 50 | 349 | 0.0 | 0.9 | 0.00 | 0.00 | 0.00 | 70 | |
| 20260502021308 | 50 | 109 | 0.9 | 6.1 | 0.00 | 0.00 | 0.00 | 69 | |
| 20260502020806 | 50 | 343 | 0.0 | 1.7 | 0.00 | 0.00 | 0.00 | 70 | |
| 20260502020303 | 50 | 306 | 0.9 | 1.7 | 0.00 | 0.00 | 0.00 | 70 | |
| 20260502015800 | 51 | 356 | 0.0 | 1.7 | 0.00 | 0.00 | 0.00 | 70 | |
| 20260502015256 | 51 | 349 | 0.9 | 1.7 | 0.00 | 0.00 | 0.00 | 71 | |
| 20260502014755 | 51 | 342 | 0.0 | 0.9 | 0.00 | 0.00 | 0.00 | 71 | |
| 20260502014251 | 51 | 336 | 0.0 | 2.6 | 0.00 | 0.00 | 0.00 | 71 | |
| 20260502013747 | 51 | 312 | 0.9 | 4.3 | 0.00 | 0.00 | 0.00 | 70 | |
| 20260502013243 | 51 | 22 | 0.9 | 0.9 | 0.00 | 0.00 | 0.00 | 73 | |
| 20260502012740 | 52 | 150 | 1.7 | 4.3 | 0.00 | 0.00 | 0.00 | 71 | |
| 20260502012238 | 52 | 300 | 2.6 | 5.2 | 0.00 | 0.00 | 0.00 | 73 | |
| 20260502011735 | 52 | 327 | 0.0 | 2.6 | 0.00 | 0.00 | 0.00 | 75 | |
| 20260502011230 | 52 | 111 | 1.7 | 1.7 | 0.00 | 0.00 | 0.00 | 77 | |
| 20260502010728 | 52 | 342 | 0.0 | 0.9 | 0.00 | 0.00 | 0.00 | 77 | |
| 20260502010224 | 52 | 2 | 0.0 | 0.9 | 0.00 | 0.00 | 0.00 | 77 | |
| 20260502005722 | 52 | 293 | 0.9 | 1.7 | 0.00 | 0.00 | 0.00 | 81 | |
| 20260502005219 | 52 | 322 | 0.0 | 0.0 | 0.00 | 0.00 | 0.00 | 79 | |
| 20260502004716 | 52 | 326 | 0.0 | 0.0 | 0.00 | 0.00 | 0.00 | 80 | |
| 20260502004212 | 51 | 310 | 0.9 | 4.3 | 0.00 | 0.00 | 0.00 | 79 | |
| 20260502003710 | 51 | 353 | 0.0 | 0.0 | 0.00 | 0.00 | 0.00 | 84 | |
| 20260502003207 | 51 | 336 | 0.9 | 1.7 | 0.00 | 0.00 | 0.00 | 84 | |
| 20260502002703 | 51 | 2 | 0.0 | 0.0 | 0.00 | 0.00 | 0.00 | 83 | |
| 20260502002201 | 52 | 356 | 0.0 | 0.0 | 0.00 | 0.00 | 0.00 | 84 | |
| 20260502001658 | 52 | 358 | 0.0 | 0.0 | 0.00 | 0.00 | 0.00 | 80 | |
| 20260502001155 | 52 | 357 | 0.0 | 0.0 | 0.00 | 0.00 | 0.00 | 81 | |
| 20260502000653 | 52 | 342 | 0.0 | 0.0 | 0.00 | 0.00 | 0.00 | 81 | |
| 20260502000151 | 52 | 350 | 0.0 | 0.0 | 0.00 | 0.00 | 0.00 | 81 | |
| 20260501235646 | 52 | 350 | 0.0 | 0.0 | 0.00 | 0.00 | 0.00 | 80 | |
| 20260501235142 | 53 | 353 | 0.0 | 0.9 | 0.00 | 0.00 | 0.00 | 80 | |
| 20260501234638 | 53 | 342 | 0.0 | 0.0 | 0.00 | 0.00 | 0.00 | 80 | |
| 20260501234136 | 53 | 14 | 0.0 | 0.0 | 0.00 | 0.00 | 0.00 | 76 | |
| 20260501233633 | 53 | 344 | 0.0 | 0.9 | 0.00 | 0.00 | 0.00 | 78 | |
| 20260501233131 | 53 | 345 | 0.0 | 0.9 | 0.00 | 0.00 | 0.00 | 77 | |
| 20260501232627 | 53 | 228 | 1.7 | 1.7 | 0.00 | 0.00 | 0.00 | 75 | |
| 20260501232124 | 53 | 348 | 0.0 | 0.0 | 0.00 | 0.00 | 0.00 | 79 | |
| 20260501231622 | 53 | 4 | 0.0 | 0.0 | 0.00 | 0.00 | 0.00 | 78 | |
| 20260501231120 | 53 | 341 | 0.0 | 1.7 | 0.00 | 0.00 | 0.00 | 76 | |
| 20260501230618 | 53 | 350 | 0.0 | 0.0 | 0.00 | 0.00 | 0.00 | 80 | |
| 20260501230116 | 53 | 319 | 0.9 | 1.7 | 0.00 | 0.00 | 0.00 | 76 | |
| 20260501225613 | 53 | 9 | 0.0 | 0.9 | 0.00 | 0.00 | 0.00 | 74 | |
| 20260501225109 | 54 | 344 | 0.0 | 0.9 | 0.00 | 0.00 | 0.00 | 76 | |
| 20260501224607 | 55 | 351 | 0.0 | 1.7 | 0.00 | 0.00 | 0.00 | 71 | |
| 20260501224103 | 55 | 277 | 0.9 | 1.7 | 0.00 | 0.00 | 0.00 | 68 | |
| 20260501223600 | 55 | 359 | 0.0 | 0.9 | 0.00 | 0.00 | 0.00 | 68 | |
| 20260501223056 | 56 | 351 | 0.9 | 5.2 | 0.00 | 0.00 | 0.00 | 66 | |
| 20260501222552 | 56 | 216 | 0.9 | 1.7 | 0.00 | 0.00 | 0.00 | 63 | |
| 20260501222049 | 56 | 93 | 1.7 | 4.3 | 0.00 | 0.00 | 0.00 | 63 | |
| 20260501221546 | 56 | 347 | 0.9 | 2.6 | 0.00 | 0.00 | 0.00 | 66 | |
| 20260501221044 | 56 | 289 | 1.7 | 2.6 | 0.00 | 0.00 | 0.00 | 67 | |
| 20260501220541 | 57 | 321 | 1.7 | 1.7 | 0.00 | 0.00 | 0.00 | 66 | |
| 20260501220038 | 57 | 304 | 0.9 | 2.6 | 0.00 | 0.00 | 0.00 | 65 | |
| 20260501215534 | 58 | 345 | 0.0 | 2.6 | 0.00 | 0.00 | 0.00 | 66 | |
| 20260501215030 | 58 | 323 | 1.7 | 5.2 | 0.00 | 0.00 | 0.00 | 65 | |
| 20260501214525 | 59 | 216 | 1.7 | 6.1 | 0.00 | 0.00 | 0.00 | 65 | |
| 20260501214021 | 58 | 343 | 1.7 | 5.2 | 0.00 | 0.00 | 0.00 | 67 | |
| 20260501213518 | 58 | 357 | 0.0 | 1.7 | 0.00 | 0.00 | 0.00 | 69 | |
| 20260501213015 | 58 | 93 | 2.6 | 4.3 | 0.00 | 0.00 | 0.00 | 68 | |
| 20260501212511 | 59 | 339 | 1.7 | 2.6 | 0.00 | 0.00 | 0.00 | 69 | |
| 20260501212008 | 59 | 338 | 0.0 | 1.7 | 0.00 | 0.00 | 0.00 | 67 | |
| 20260501211504 | 59 | 51 | 3.5 | 5.2 | 0.00 | 0.00 | 0.00 | 66 | |
| 20260501211003 | 59 | 327 | 0.0 | 1.7 | 0.00 | 0.00 | 0.00 | 66 | |
| 20260501210458 | 59 | 282 | 1.7 | 4.3 | 0.00 | 0.00 | 0.00 | 65 | |
| 20260501205955 | 59 | 286 | 2.6 | 4.3 | 0.00 | 0.00 | 0.00 | 65 | |
| 20260501205452 | 59 | 228 | 0.9 | 2.6 | 0.00 | 0.00 | 0.00 | 62 | |
| 20260501204950 | 60 | 295 | 2.6 | 6.1 | 0.00 | 0.00 | 0.00 | 62 | |
| 20260501204445 | 60 | 301 | 0.9 | 2.6 | 0.00 | 0.00 | 0.00 | 59 | |
| 20260501203942 | 60 | 202 | 1.7 | 2.6 | 0.00 | 0.00 | 0.00 | 59 | |
| 20260501203438 | 60 | 339 | 0.0 | 5.2 | 0.00 | 0.00 | 0.00 | 58 | |
| 20260501202936 | 61 | 10 | 0.0 | 1.7 | 0.00 | 0.00 | 0.00 | 58 | |
| 20260501202433 | 62 | 327 | 0.0 | 2.6 | 0.00 | 0.00 | 0.00 | 58 | |
| 20260501201929 | 62 | 3 | 2.6 | 4.3 | 0.00 | 0.00 | 0.00 | 55 | |
| 20260501201426 | 62 | 349 | 1.7 | 5.2 | 0.00 | 0.00 | 0.00 | 54 | |
| 20260501200923 | 62 | 331 | 0.9 | 1.7 | 0.00 | 0.00 | 0.00 | 56 | |
| 20260501200420 | 63 | 17 | 1.7 | 2.6 | 0.00 | 0.00 | 0.00 | 51 | |
| 20260501195918 | 62 | 332 | 0.9 | 2.6 | 0.00 | 0.00 | 0.00 | 52 | |
| 20260501195414 | 63 | 347 | 0.9 | 2.6 | 0.00 | 0.00 | 0.00 | 49 | |
| 20260501194910 | 64 | 327 | 0.9 | 6.1 | 0.00 | 0.00 | 0.00 | 48 | |
| 20260501194406 | 64 | 81 | 1.7 | 2.6 | 0.00 | 0.00 | 0.00 | 50 | |
| 20260501193902 | 64 | 339 | 0.0 | 1.7 | 0.00 | 0.00 | 0.00 | 50 | |
| 20260501193401 | 64 | 350 | 0.0 | 1.7 | 0.00 | 0.00 | 0.00 | 45 | |
| 20260501192858 | 64 | 354 | 0.9 | 2.6 | 0.00 | 0.00 | 0.00 | 46 | |
| 20260501192355 | 65 | 334 | 2.6 | 2.6 | 0.00 | 0.00 | 0.00 | 47 | |
| 20260501191852 | 65 | 45 | 0.9 | 2.6 | 0.00 | 0.00 | 0.00 | 45 | |
| 20260501191349 | 65 | 8 | 0.9 | 1.7 | 0.00 | 0.00 | 0.00 | 43 | |
| 20260501190846 | 65 | 267 | 3.5 | 4.3 | 0.00 | 0.00 | 0.00 | 43 | |
| 20260501190342 | 66 | 228 | 0.9 | 0.9 | 0.00 | 0.00 | 0.00 | 44 | |
| 20260501185837 | 68 | 319 | 2.6 | 4.3 | 0.00 | 0.00 | 0.00 | 41 | |
| 20260501185333 | 68 | 350 | 4.3 | 7.8 | 0.00 | 0.00 | 0.00 | 39 | |
| 20260501184829 | 68 | 340 | 1.7 | 1.7 | 0.00 | 0.00 | 0.00 | 47 | |
| 20260501184325 | 68 | 149 | 0.9 | 5.2 | 0.00 | 0.00 | 0.00 | 43 | |
| 20260501183821 | 68 | 359 | 0.0 | 1.7 | 0.00 | 0.00 | 0.00 | 41 |